Home   Weather   Gladbeck   Past weeks
Flag for Germany

Past Weather in Gladbeck, North Rhine-Westphalia, Germany — Yesterday and Last 2 Weeks

Now
55 °F

Light rain. Partly sunny.


Feels Like: 53 °F
Forecast: 65 / 51 °F
Wind: 9 mph from West

Location: Duesseldorf

Current Time: May 21, 2019 at 4:50:54 pm

Latest Report: May 21, 2019 at 3:50 pm


Visibility: 4 mi

Pressure: 29.95 "Hg

Humidity: 94%

Dew Point: 54 °F

Location of GladbeckLocation

Past Weather in Gladbeck — Graph

°F

Gladbeck Temperature Yesterday

Maximum temperature yesterday: 61 °F (at 3:20 pm)
Minimum temperature yesterday: 52 °F (at 12:20 am)
Average temperature yesterday: 57 °F

High & Low Weather Summary for the Past Weeks

 TemperatureHumidityPressure
High73 °F (May 18, 4:20 pm)100% (May 7, 4:50 am)30.69 "Hg (May 7, 4:50 am)
Low37 °F (May 7, 5:50 am)25% (May 13, 3:50 pm)29.42 "Hg (May 8, 5:20 pm)
Average53 °F73%29.98 "Hg
* Reported May 6 3:20 pm — May 21 3:20 pm, Gladbeck. Weather by CustomWeather, © 2019

Note: Actual official high and low records may vary slightly from our data, if they occured in-between our weather recording intervals... More about our weather records

Advertising

Gladbeck Weather History for the Previous 24 Hours

Scroll right to see more
 ConditionsComfort  
Time TempWeatherWind HumidityBarometerVisibility
3:20 pm
Tue, May 21
55 °FLight rain. Broken clouds.12 mph94%29.95 "Hg4 mi
2:50 pm55 °FLow clouds.12 mph94%29.95 "Hg4 mi
1:50 pm54 °FLight rain. Partly sunny.12 mph100%29.92 "Hg4 mi
1:20 pm54 °FLight rain. Partly sunny.10 mph100%29.92 "Hg4 mi
12:50 pm54 °FLight rain. Partly sunny.12 mph94%29.92 "Hg4 mi
12:20 pm54 °FRain. Partly sunny.12 mph94%29.89 "Hg4 mi
11:50 am54 °FRain. Fog.10 mph94%29.89 "Hg3 mi
11:20 am54 °FLight rain. Fog.9 mph94%29.89 "Hg2 mi
10:50 am54 °FLight rain. Fog.12 mph94%29.86 "Hg2 mi
10:20 am54 °FLight rain. Fog.13 mph94%29.86 "Hg2 mi
9:50 am54 °FLight rain. Fog.13 mph94%29.86 "Hg2 mi
9:20 am54 °FLight rain. Fog.13 mph94%29.86 "Hg2 mi
8:50 am54 °FFog.12 mph100%29.83 "Hg2 mi
8:20 am54 °FLight rain. Fog.14 mph100%29.83 "Hg2 mi
7:50 am54 °FFog.14 mph100%29.83 "Hg2 mi
7:20 am54 °FFog.14 mph100%29.80 "Hg1 mi
6:50 am54 °FLight rain. Fog.14 mph100%29.80 "Hg1 mi
6:20 am54 °FLight rain. Fog.14 mph100%29.80 "Hg1 mi
5:50 am54 °FLight rain. Fog.10 mph100%29.80 "Hg1 mi
5:20 am54 °FDrizzle. Fog.10 mph100%29.80 "Hg1 mi
4:50 am54 °FDrizzle. Fog.12 mph100%29.80 "Hg1 mi
4:20 am54 °FDrizzle. Fog.12 mph100%29.80 "Hg1 mi
3:50 am54 °FDrizzle. Fog.12 mph100%29.80 "Hg1 mi
3:20 am54 °FDrizzle. Fog.12 mph100%29.80 "Hg1 mi
2:50 am54 °FDrizzle. Fog.12 mph100%29.80 "Hg1 mi
2:20 am55 °FDrizzle. Fog.10 mph94%29.80 "Hg1 mi
1:50 am55 °FDrizzle. Fog.13 mph94%29.80 "Hg2 mi
1:20 am55 °FDrizzle. Fog.10 mph94%29.80 "Hg2 mi
12:50 am55 °FLow clouds.12 mph94%29.80 "Hg4 mi
12:20 am57 °FOvercast.12 mph88%29.80 "Hg5 mi
11:50 pm
Mon, May 20
57 °FOvercast.14 mph88%29.80 "Hg5 mi
11:20 pm57 °FLight rain. Overcast.13 mph88%29.80 "Hg6 mi
10:50 pm57 °FLight rain. Overcast.10 mph88%29.80 "Hg6 mi
10:20 pm59 °FOvercast.10 mph82%29.80 "Hg6 mi
9:50 pm59 °FMostly cloudy.12 mph82%29.77 "HgN/A
9:20 pm59 °FOvercast.10 mph82%29.77 "HgN/A
8:50 pm59 °FOvercast.9 mph82%29.77 "HgN/A
8:20 pm59 °FOvercast.10 mph82%29.77 "HgN/A
7:50 pm61 °FMostly cloudy.12 mph77%29.77 "HgN/A
7:20 pm61 °FMostly cloudy.10 mph77%29.77 "HgN/A
6:50 pm61 °FMore clouds than sun.13 mph77%29.74 "HgN/A
6:20 pm61 °FMostly cloudy.12 mph77%29.74 "HgN/A
5:50 pm61 °FMostly cloudy.10 mph77%29.77 "HgN/A
5:20 pm61 °FMostly cloudy.10 mph77%29.77 "HgN/A
4:50 pm61 °FPartly sunny.13 mph77%29.77 "HgN/A
4:20 pm61 °FMostly cloudy.13 mph77%29.74 "HgN/A
Weather by CustomWeather, © 2019

See weather overview